Regional Weather Roundup
Issued by NWS

Home | Current Version | Previous Version | Graphics & Text | Print | Product List | Glossary Off
Versions: 1 2 3 4 5 6 7 8 9 10 11 12 13 14 15 16 17 18 19 20 21 22 23 24 25 26 27 28 29 30 31 32 33 34 35 36 37 38 39 40 41 42 43 44 45 46 47 48 49 50

000
ASUS44 KMEG 160300
RWRTN
TENNESSEE HOURLY STATE WEATHER ROUNDUP
NATIONAL WEATHER SERVICE MEMPHIS TN
1000 PM CDT MON SEP 15 2014

TNZ002-004-019-021-049-052-054-088>092-160400-
WEST TENNESSEE

CITY           SKY/WX    TMP DP  RH WIND       PRES   REMARKS
MEMPHIS INTL   CLOUDY    75  65  70 SW5       30.13R
NWS MEMPHIS      N/A     71 N/A N/A MISG        N/A
JACKSON        CLOUDY    68  66  93 CALM      30.12S
DYERSBURG      PTCLDY    66  55  68 S3        30.12S
PARIS          CLEAR     61  59  94 CALM      30.12S
SAVANNAH       CLEAR     68  68 100 CALM      30.13S
$$

TNZ008-025-027-028-033-062-065-066-160400-
NORTH MIDDLE TENNESSEE

CITY           SKY/WX    TMP DP  RH WIND       PRES   REMARKS
NASHVILLE      MOCLDY    66  63  90 CALM      30.12F
CLARKSVILLE    PTCLDY    66  61  84 CALM      30.11S
COOKEVILLE     PTCLDY    64  64 100 CALM      30.14S
CROSSVILLE     MOCLDY    66  62  87 CALM      30.18S
$$

TNZ061-075-076-078-094-096-097-160400-
SOUTH MIDDLE TENNESSEE

CITY           SKY/WX    TMP DP  RH WIND       PRES   REMARKS
SHELBYVILLE    PTCLDY    66  66 100 CALM      30.14S
$$

TNZ017-018-042-046-047-160400-
NORTHEAST TENNESSEE

CITY           SKY/WX    TMP DP  RH WIND       PRES   REMARKS
TRI CITIES     MOCLDY    65  62  90 CALM      30.16R
ELIZABETHTON   PTCLDY    63  61  94 CALM      30.17S
$$

TNZ012-013-036-069-073-074-160400-
CENTRAL EAST TENNESSEE

CITY           SKY/WX    TMP DP  RH WIND       PRES   REMARKS
KNOXVILLE      CLOUDY    71  68  90 W3        30.13S
OAK RIDGE      CLOUDY    69  68  96 CALM      30.15S FOG
GATLINBURG     CLEAR     68  66  94 CALM      30.13S
$$

TNZ083-085-099-160400-
SOUTHEAST TENNESSEE

CITY           SKY/WX    TMP DP  RH WIND       PRES   REMARKS
CHATTANOOGA    CLOUDY    72  69  90 CALM      30.13F
$$

SKY/WX REPORTED AS FAIR MEANS FEW OR NO CLOUDS BELOW
12 THOUSAND FEET.




USA.gov is the U.S. government's official web portal to all federal, state and local government web resources and services.